UAE9908 SBCF-SBKP

Flight info

Callsign UAE9908
Flight time 0h 51m
Altitude 32000
Route ANDEM UZ30 ENTIT
Aircraft B77L/H-SDE1E2E3FGHIJ2J3J4J5M1RWXY/LB1D1

Departure

Time 2026-05-04 21:46
Airport Tancredo Neves International Airport (SBCF)

Arrival

Time 2026-05-04 22:38
Airport Viracopos International Airport (SBKP)
Time Latitude Longitude Altitude Speed Heading
2026-05-04 21:35 -19.64182 -43.95686 2817 ft 0 kts 50°
2026-05-04 21:36 -19.64217 -43.95730 2812 ft 4 kts 47°
2026-05-04 21:36 -19.64231 -43.95740 2810 ft 4 kts
2026-05-04 21:37 -19.64251 -43.95737 2810 ft 4 kts 325°
2026-05-04 21:37 -19.64271 -43.95721 2808 ft 2 kts 319°
2026-05-04 21:37 -19.64272 -43.95720 2809 ft 0 kts 319°
2026-05-04 21:40 -19.64271 -43.95720 2809 ft 0 kts 319°
2026-05-04 21:40 -19.64256 -43.95734 2808 ft 6 kts 319°
2026-05-04 21:40 -19.64222 -43.95766 2807 ft 8 kts 319°
2026-05-04 21:40 -19.64172 -43.95812 2807 ft 10 kts 319°
2026-05-04 21:41 -19.64145 -43.95864 2807 ft 8 kts 251°
2026-05-04 21:41 -19.64149 -43.95919 2807 ft 9 kts 300°
2026-05-04 21:41 -19.64087 -43.95987 2807 ft 17 kts 319°
2026-05-04 21:41 -19.63990 -43.96076 2808 ft 20 kts 319°
2026-05-04 21:42 -19.63881 -43.96178 2808 ft 22 kts 319°
2026-05-04 21:42 -19.63758 -43.96290 2808 ft 24 kts 319°
2026-05-04 21:42 -19.63636 -43.96404 2808 ft 24 kts 318°
2026-05-04 21:42 -19.63512 -43.96519 2807 ft 24 kts 319°
2026-05-04 21:43 -19.63387 -43.96634 2810 ft 24 kts 319°
2026-05-04 21:43 -19.63262 -43.96748 2809 ft 24 kts 319°
2026-05-04 21:43 -19.63139 -43.96862 2810 ft 24 kts 319°
2026-05-04 21:43 -19.63015 -43.96977 2810 ft 24 kts 319°
2026-05-04 21:44 -19.62891 -43.97092 2811 ft 24 kts 318°
2026-05-04 21:44 -19.62769 -43.97208 2810 ft 24 kts 318°
2026-05-04 21:44 -19.62645 -43.97322 2810 ft 24 kts 320°
2026-05-04 21:44 -19.62521 -43.97437 2810 ft 24 kts 319°
2026-05-04 21:45 -19.62397 -43.97551 2810 ft 24 kts 319°
2026-05-04 21:45 -19.62275 -43.97664 2810 ft 24 kts 317°
2026-05-04 21:45 -19.62312 -43.97783 2810 ft 20 kts 195°
2026-05-04 21:45 -19.62456 -43.97722 2815 ft 44 kts 139°
2026-05-04 21:46 -19.62953 -43.97262 2811 ft 145 kts 139°
2026-05-04 21:46 -19.63907 -43.96375 3172 ft 199 kts 138°
2026-05-04 21:46 -19.64926 -43.95433 4506 ft 189 kts 137°
2026-05-04 21:46 -19.65984 -43.94455 5153 ft 215 kts 137°
2026-05-04 21:47 -19.67132 -43.93390 5743 ft 225 kts 137°
2026-05-04 21:47 -19.68346 -43.92283 6367 ft 235 kts 143°
2026-05-04 21:47 -19.69884 -43.91651 7009 ft 241 kts 178°
2026-05-04 21:47 -19.71501 -43.92018 7801 ft 241 kts 211°
2026-05-04 21:48 -19.72691 -43.93253 8479 ft 240 kts 236°
2026-05-04 21:48 -19.73640 -43.94733 9195 ft 244 kts 236°
2026-05-04 21:48 -19.74588 -43.96231 10002 ft 244 kts 236°
2026-05-04 21:48 -19.75304 -43.97827 10595 ft 248 kts 261°
2026-05-04 21:49 -19.75444 -43.99712 10859 ft 269 kts 268°
2026-05-04 21:49 -19.75511 -44.01799 11080 ft 297 kts 268°
2026-05-04 21:49 -19.75580 -44.04097 11290 ft 326 kts 268°
2026-05-04 21:49 -19.75660 -44.06602 11509 ft 354 kts 268°
2026-05-04 21:50 -19.75752 -44.09307 11815 ft 376 kts 268°
2026-05-04 21:50 -19.75854 -44.12120 12526 ft 385 kts 268°
2026-05-04 21:50 -19.75961 -44.14985 13328 ft 391 kts 268°
2026-05-04 21:50 -19.76072 -44.17894 14148 ft 396 kts 268°
2026-05-04 21:51 -19.76183 -44.20830 14918 ft 399 kts 268°
2026-05-04 21:51 -19.76286 -44.23777 15727 ft 401 kts 268°
2026-05-04 21:51 -19.76386 -44.26756 16434 ft 406 kts 268°
2026-05-04 21:51 -19.76487 -44.29728 17138 ft 410 kts 268°
2026-05-04 21:52 -19.76602 -44.32763 17890 ft 413 kts 267°
2026-05-04 21:52 -19.76726 -44.35821 18624 ft 416 kts 267°
2026-05-04 21:52 -19.76850 -44.38894 19291 ft 418 kts 267°
2026-05-04 21:52 -19.76974 -44.41983 19980 ft 419 kts 266°
2026-05-04 21:53 -19.77435 -44.45028 20604 ft 418 kts 251°
2026-05-04 21:53 -19.78498 -44.47915 21060 ft 423 kts 248°
2026-05-04 21:53 -19.79626 -44.50814 21635 ft 426 kts 248°
2026-05-04 21:53 -19.80740 -44.53735 22348 ft 426 kts 248°
2026-05-04 21:54 -19.81828 -44.56664 23064 ft 427 kts 249°
2026-05-04 21:54 -19.82905 -44.59617 23689 ft 429 kts 249°
2026-05-04 21:54 -19.83981 -44.62589 24172 ft 432 kts 249°
2026-05-04 21:54 -19.85048 -44.65540 24663 ft 435 kts 249°
2026-05-04 21:55 -19.86133 -44.68542 25182 ft 436 kts 249°
2026-05-04 21:55 -19.87222 -44.71553 25735 ft 437 kts 249°
2026-05-04 21:55 -19.88314 -44.74575 26250 ft 439 kts 249°
2026-05-04 21:55 -19.89411 -44.77615 26752 ft 441 kts 249°
2026-05-04 21:56 -19.90511 -44.80663 27269 ft 443 kts 249°
2026-05-04 21:56 -19.91618 -44.83733 27781 ft 445 kts 249°
2026-05-04 21:56 -19.92727 -44.86811 28288 ft 447 kts 249°
2026-05-04 21:56 -19.93842 -44.89907 28754 ft 449 kts 249°
2026-05-04 21:57 -19.94960 -44.93013 29210 ft 451 kts 249°
2026-05-04 21:57 -19.96084 -44.96140 29661 ft 453 kts 249°
2026-05-04 21:57 -19.97208 -44.99268 30225 ft 452 kts 249°
2026-05-04 21:57 -19.98308 -45.02330 30850 ft 447 kts 249°
2026-05-04 21:58 -19.99412 -45.05406 31391 ft 445 kts 249°
2026-05-04 21:58 -20.00513 -45.08474 31898 ft 444 kts 249°
2026-05-04 21:58 -20.01611 -45.11539 32391 ft 442 kts 250°
2026-05-04 21:58 -20.02705 -45.14593 32886 ft 441 kts 250°
2026-05-04 21:59 -20.03793 -45.17629 33365 ft 439 kts 250°
2026-05-04 21:59 -20.04877 -45.20659 33836 ft 437 kts 250°
2026-05-04 21:59 -20.05956 -45.23677 34186 ft 437 kts 250°
2026-05-04 22:00 -20.08117 -45.29727 34152 ft 437 kts 250°
2026-05-04 22:00 -20.10279 -45.35750 34155 ft 434 kts 248°
2026-05-04 22:00 -20.11748 -45.38555 34173 ft 437 kts 236°
2026-05-04 22:01 -20.13807 -45.40960 34143 ft 440 kts 223°
2026-05-04 22:01 -20.18606 -45.44988 34160 ft 443 kts 222°
2026-05-04 22:02 -20.23444 -45.49148 34159 ft 445 kts 223°
2026-05-04 22:02 -20.28211 -45.53311 34155 ft 446 kts 223°
2026-05-04 22:03 -20.33027 -45.57519 34149 ft 447 kts 223°
2026-05-04 22:03 -20.37823 -45.61710 34144 ft 444 kts 223°
2026-05-04 22:04 -20.42583 -45.65874 34147 ft 441 kts 223°
2026-05-04 22:04 -20.47317 -45.70022 34145 ft 440 kts 223°
2026-05-04 22:05 -20.52053 -45.74175 34143 ft 440 kts 223°
2026-05-04 22:05 -20.56760 -45.78306 34149 ft 442 kts 223°
2026-05-04 22:06 -20.61521 -45.82488 34148 ft 443 kts 223°
2026-05-04 22:06 -20.66282 -45.86672 34144 ft 443 kts 223°
2026-05-04 22:07 -20.71037 -45.90855 34142 ft 444 kts 223°
2026-05-04 22:07 -20.75808 -45.95054 34145 ft 445 kts 223°
2026-05-04 22:08 -20.80598 -45.99269 34145 ft 446 kts 223°
2026-05-04 22:08 -20.85390 -46.03492 34154 ft 446 kts 223°
2026-05-04 22:09 -20.90180 -46.07718 34153 ft 446 kts 223°
2026-05-04 22:09 -20.95040 -46.11856 34152 ft 448 kts 218°
2026-05-04 22:10 -21.00507 -46.15138 34157 ft 453 kts 210°
2026-05-04 22:10 -21.06448 -46.17517 34143 ft 458 kts 202°
2026-05-04 22:11 -21.12513 -46.19584 34149 ft 457 kts 203°
2026-05-04 22:11 -21.18553 -46.21707 34150 ft 457 kts 203°
2026-05-04 22:12 -21.24570 -46.23753 34152 ft 457 kts 202°
2026-05-04 22:12 -21.30633 -46.25802 34154 ft 456 kts 202°
2026-05-04 22:13 -21.36672 -46.27852 34151 ft 450 kts 202°
2026-05-04 22:13 -21.39632 -46.28857 33790 ft 445 kts 203°
2026-05-04 22:13 -21.42584 -46.29864 33199 ft 443 kts 202°
2026-05-04 22:13 -21.45504 -46.30860 32704 ft 438 kts 203°
2026-05-04 22:14 -21.48403 -46.31850 32161 ft 435 kts 203°
2026-05-04 22:14 -21.51278 -46.32832 31637 ft 431 kts 203°
2026-05-04 22:14 -21.54128 -46.33806 31123 ft 428 kts 203°
2026-05-04 22:14 -21.56961 -46.34775 30608 ft 425 kts 203°
2026-05-04 22:15 -21.59771 -46.35737 30038 ft 423 kts 203°
2026-05-04 22:15 -21.62535 -46.36682 29457 ft 420 kts 203°
2026-05-04 22:15 -21.65311 -46.37632 28909 ft 416 kts 203°
2026-05-04 22:15 -21.68050 -46.38594 28380 ft 412 kts 204°
2026-05-04 22:16 -21.70753 -46.39580 27863 ft 408 kts 204°
2026-05-04 22:16 -21.73429 -46.40569 27365 ft 405 kts 204°
2026-05-04 22:16 -21.76083 -46.41554 26857 ft 402 kts 204°
2026-05-04 22:16 -21.78721 -46.42531 26367 ft 400 kts 203°
2026-05-04 22:17 -21.81346 -46.43501 25871 ft 397 kts 203°
2026-05-04 22:17 -21.83958 -46.44461 25402 ft 395 kts 203°
2026-05-04 22:17 -21.86560 -46.45420 24888 ft 395 kts 203°
2026-05-04 22:17 -21.89161 -46.46378 24406 ft 394 kts 203°
2026-05-04 22:18 -21.91725 -46.47320 23916 ft 394 kts 202°
2026-05-04 22:18 -21.94319 -46.48276 23380 ft 393 kts 202°
2026-05-04 22:18 -21.96905 -46.49229 22856 ft 391 kts 202°
2026-05-04 22:18 -21.99466 -46.50171 22384 ft 388 kts 202°
2026-05-04 22:19 -22.02020 -46.51112 21903 ft 386 kts 202°
2026-05-04 22:19 -22.04551 -46.52044 21433 ft 384 kts 202°
2026-05-04 22:19 -22.07072 -46.52973 20979 ft 382 kts 202°
2026-05-04 22:19 -22.09575 -46.53896 20502 ft 380 kts 202°
2026-05-04 22:20 -22.12068 -46.54816 20044 ft 378 kts 202°
2026-05-04 22:20 -22.14548 -46.55732 19592 ft 376 kts 202°
2026-05-04 22:20 -22.16998 -46.56636 19134 ft 375 kts 202°
2026-05-04 22:20 -22.19460 -46.57546 18666 ft 374 kts 202°
2026-05-04 22:21 -22.21917 -46.58453 18165 ft 373 kts 202°
2026-05-04 22:21 -22.24365 -46.59359 17671 ft 370 kts 202°
2026-05-04 22:21 -22.25976 -46.59955 17361 ft 368 kts 202°
2026-05-04 22:21 -22.28390 -46.60848 16905 ft 365 kts 202°
2026-05-04 22:22 -22.30782 -46.61734 16444 ft 362 kts 201°
2026-05-04 22:22 -22.33157 -46.62613 16013 ft 360 kts 201°
2026-05-04 22:22 -22.35522 -46.63488 15570 ft 357 kts 201°
2026-05-04 22:22 -22.37866 -46.64355 15120 ft 355 kts 201°
2026-05-04 22:23 -22.40135 -46.65336 14679 ft 348 kts 210°
2026-05-04 22:23 -22.42121 -46.66793 14260 ft 344 kts 220°
2026-05-04 22:23 -22.43823 -46.68602 13787 ft 342 kts 231°
2026-05-04 22:23 -22.45273 -46.70627 13325 ft 339 kts 233°
2026-05-04 22:24 -22.46685 -46.72662 12886 ft 337 kts 233°
2026-05-04 22:24 -22.48087 -46.74683 12429 ft 334 kts 233°
2026-05-04 22:24 -22.49481 -46.76680 12026 ft 332 kts 233°
2026-05-04 22:24 -22.50872 -46.78661 11610 ft 329 kts 233°
2026-05-04 22:25 -22.52240 -46.80602 11203 ft 327 kts 233°
2026-05-04 22:25 -22.53613 -46.82546 10908 ft 321 kts 233°
2026-05-04 22:25 -22.54945 -46.84429 10763 ft 310 kts 233°
2026-05-04 22:25 -22.56230 -46.86246 10619 ft 299 kts 233°
2026-05-04 22:26 -22.57470 -46.88002 10486 ft 288 kts 233°
2026-05-04 22:26 -22.58660 -46.89692 10366 ft 277 kts 234°
2026-05-04 22:26 -22.59802 -46.91314 10239 ft 265 kts 234°
2026-05-04 22:26 -22.60908 -46.92886 10137 ft 263 kts 234°
2026-05-04 22:27 -22.62049 -46.94508 9825 ft 279 kts 234°
2026-05-04 22:27 -22.63250 -46.96216 9368 ft 288 kts 234°
2026-05-04 22:27 -22.64408 -46.97862 9045 ft 288 kts 234°
2026-05-04 22:27 -22.65579 -46.99524 8805 ft 280 kts 234°
2026-05-04 22:28 -22.66736 -47.01167 8681 ft 268 kts 234°
2026-05-04 22:28 -22.67840 -47.02735 8579 ft 255 kts 234°
2026-05-04 22:28 -22.68899 -47.04241 8295 ft 249 kts 234°
2026-05-04 22:28 -22.69939 -47.05721 8041 ft 242 kts 234°
2026-05-04 22:29 -22.70938 -47.07144 7832 ft 232 kts 234°
2026-05-04 22:29 -22.71899 -47.08512 7667 ft 230 kts 234°
2026-05-04 22:29 -22.72863 -47.09885 7496 ft 228 kts 235°
2026-05-04 22:29 -22.73820 -47.11250 7329 ft 227 kts 235°
2026-05-04 22:30 -22.74772 -47.12609 7204 ft 225 kts 234°
2026-05-04 22:30 -22.75716 -47.13956 7043 ft 226 kts 234°
2026-05-04 22:30 -22.76630 -47.15260 6848 ft 219 kts 234°
2026-05-04 22:30 -22.77489 -47.16483 6676 ft 212 kts 235°
2026-05-04 22:31 -22.78378 -47.17750 6538 ft 211 kts 234°
2026-05-04 22:31 -22.79260 -47.19010 6346 ft 208 kts 235°
2026-05-04 22:31 -22.80131 -47.20254 6206 ft 207 kts 235°
2026-05-04 22:31 -22.81003 -47.21499 6067 ft 207 kts 235°
2026-05-04 22:32 -22.81941 -47.22655 5874 ft 209 kts 221°
2026-05-04 22:32 -22.83091 -47.23617 5735 ft 210 kts 217°
2026-05-04 22:32 -22.84271 -47.24570 5550 ft 213 kts 217°
2026-05-04 22:32 -22.85465 -47.25546 5336 ft 215 kts 217°
2026-05-04 22:33 -22.86644 -47.26519 5156 ft 211 kts 218°
2026-05-04 22:33 -22.87820 -47.27427 4946 ft 204 kts 204°
2026-05-04 22:33 -22.89163 -47.27693 4782 ft 196 kts 170°
2026-05-04 22:33 -22.90385 -47.27100 4634 ft 194 kts 140°
2026-05-04 22:34 -22.91390 -47.26127 4467 ft 195 kts 134°
2026-05-04 22:34 -22.92320 -47.25102 4282 ft 184 kts 132°
2026-05-04 22:34 -22.93131 -47.24084 4107 ft 173 kts 128°
2026-05-04 22:34 -22.93850 -47.23097 3949 ft 162 kts 127°
2026-05-04 22:35 -22.94533 -47.22139 3807 ft 157 kts 127°
2026-05-04 22:35 -22.95186 -47.21229 3651 ft 149 kts 129°
2026-05-04 22:35 -22.95801 -47.20362 3437 ft 145 kts 127°
2026-05-04 22:35 -22.96408 -47.19505 3205 ft 141 kts 127°
2026-05-04 22:36 -22.97012 -47.18655 3034 ft 145 kts 127°
2026-05-04 22:36 -22.97642 -47.17771 2849 ft 150 kts 127°
2026-05-04 22:36 -22.97957 -47.17318 2778 ft 152 kts 127°
2026-05-04 22:36 -22.98618 -47.16403 2594 ft 156 kts 128°
2026-05-04 22:37 -22.99289 -47.15473 2379 ft 157 kts 128°
2026-05-04 22:37 -22.99961 -47.14539 2193 ft 155 kts 127°
2026-05-04 22:37 -23.00564 -47.13696 2155 ft 123 kts 128°
2026-05-04 22:37 -23.00971 -47.13123 2153 ft 74 kts 127°
2026-05-04 22:38 -23.01231 -47.12850 2154 ft 39 kts 152°
2026-05-04 22:38 -23.01374 -47.12831 2155 ft 12 kts 243°
2026-05-04 22:38 -23.01340 -47.12935 2156 ft 27 kts 304°
2026-05-04 22:38 -23.01198 -47.13129 2156 ft 34 kts 309°
2026-05-04 22:39 -23.01057 -47.13324 2153 ft 32 kts 306°
2026-05-04 22:39 -23.00925 -47.13509 2153 ft 30 kts 306°
2026-05-04 22:39 -23.00797 -47.13687 2153 ft 30 kts 308°
2026-05-04 22:39 -23.00712 -47.13884 2161 ft 30 kts 277°
2026-05-04 22:40 -23.00626 -47.14087 2154 ft 30 kts 305°
2026-05-04 22:40 -23.00599 -47.14217 2157 ft 14 kts 221°
2026-05-04 22:40 -23.00634 -47.14247 2155 ft 0 kts 218°